This is the latest recevied weather packets stored in our database for station/object VE3MNX. If no packets are shown the sender has not sent any weather packets the latest 10 day(s).
| Time | Temp. | Humidity | Pressure | Rain* | Wind** | Luminosity | Snow |
|---|---|---|---|---|---|---|---|
| 1778029698 | 8.89° C | 99% | 1007.1 hPa | 0.51 mm | - | - | - |
| 1778028799 | 8.89° C | 99% | 1007.1 hPa | 0.25 mm | - | - | - |
| 1778027897 | 8.89° C | 99% | 1006.8 hPa | 0.51 mm | - | - | - |
| 1778027077 | 8.89° C | 99% | 1006.8 hPa | 0.76 mm | - | - | - |
| 1778026181 | 8.89° C | 99% | 1006.4 hPa | 1.02 mm | - | - | - |
| 1778025198 | 8.89° C | 99% | 1006.4 hPa | 1.52 mm | - | - | - |
| 1778024297 | 9.44° C | 99% | 1006.8 hPa | 2.03 mm | - | - | - |
| 1778023400 | 9.44° C | 99% | 1006.8 hPa | 2.29 mm | - | - | - |
| 1778022496 | 9.44° C | 99% | 1006.4 hPa | 2.29 mm | - | - | - |
| 1778021599 | 9.44° C | 99% | 1006.4 hPa | 2.29 mm | - | - | - |
| 1778020697 | 9.44° C | 98% | 1006.1 hPa | 1.52 mm | - | - | - |
| 1778019797 | 9.44° C | 98% | 1006.8 hPa | 1.27 mm | - | - | - |
| 1778018897 | 10° C | 98% | 1006.8 hPa | 1.02 mm | - | - | - |
| 1778017997 | 10° C | 96% | 1006.1 hPa | 1.02 mm | - | - | - |
| 1778017099 | 10.56° C | 95% | 1006.4 hPa | 0.76 mm | - | - | - |
| 1778016197 | 10.56° C | 95% | 1006.4 hPa | 0.76 mm | - | - | - |
| 1778015297 | 10° C | 95% | 1006.8 hPa | 1.52 mm | - | - | - |
| 1778014397 | 10° C | 94% | 1006.8 hPa | 1.78 mm | - | - | - |
| 1778013497 | 10° C | 93% | 1006.8 hPa | 2.54 mm | - | - | - |
| 1778012598 | 10.56° C | 93% | 1006.8 hPa | 2.29 mm | - | - | - |
| 1778011697 | 10.56° C | 91% | 1006.7 hPa | 1.52 mm | - | - | - |
| 1778010797 | 11.11° C | 92% | 1006.1 hPa | 0.76 mm | - | - | - |
| 1778009897 | 11.67° C | 86% | 1006.4 hPa | 0 mm | - | - | - |
| 1778008997 | 12.22° C | 81% | 1006.1 hPa | 0 mm | - | - | - |
| 1778008098 | 13.33° C | 77% | 1005.8 hPa | 0 mm | - | - | - |
* Rain latest hour (hover to see other rain measurements)
** Current wind speed in m/s (hover to see current wind gust speed)